Regional Weather Roundup
Issued by NWS

Home | Current Version | Previous Version | Graphics & Text | Print | Product List | Glossary On
Versions: 1 2 3 4 5 6 7 8 9 10 11 12 13 14 15 16 17 18 19 20 21 22 23 24 25 26 27 28 29 30 31 32 33 34 35 36 37 38 39 40 41 42 43 44 45 46 47 48 49 50
000
ASUS44 KMEG 211610
RWRTN
TENNESSEE HOURLY STATE WEATHER ROUNDUP
NATIONAL WEATHER SERVICE MEMPHIS TN
1100 AM CDT TUE OCT 21 2014

TNZ002-004-019-021-049-052-054-088>092-211700-
WEST TENNESSEE

CITY           SKY/WX    TMP DP  RH WIND       PRES   REMARKS
MEMPHIS INTL   SUNNY     72  48  42 N3        30.11S
NWS MEMPHIS      N/A     70 N/A N/A MISG        N/A
JACKSON        SUNNY     70  48  45 N6        30.11R
DYERSBURG      SUNNY     66  46  48 CALM      30.12S
UNION CITY     SUNNY     66  48  52 NW7       30.09S
PARIS          SUNNY     64  45  48 NW6       30.10S
HUNTINGDON     SUNNY     65  46  50 VRB5      30.10S
LEXINGTON      SUNNY     66  52  59 CALM      30.10R
SAVANNAH       SUNNY     66  55  68 N5        30.10S
$$

TNZ008-025-027-028-033-062-065-066-211700-
NORTH MIDDLE TENNESSEE

CITY           SKY/WX    TMP DP  RH WIND       PRES   REMARKS
NASHVILLE      SUNNY     67  47  48 NW6       30.08S
CLARKSVILLE    SUNNY     65  49  56 NW7       30.08S
SMYRNA         SUNNY     67  50  54 N8        30.09S
COOKEVILLE     SUNNY     63  52  67 CALM      30.07S
CROSSVILLE     MOSUNNY   62  40  44 NW12G20   30.06F
$$

TNZ061-075-076-078-094-096-097-211700-
SOUTH MIDDLE TENNESSEE

CITY           SKY/WX    TMP DP  RH WIND       PRES   REMARKS
FAYETTEVILLE   SUNNY     63  46  55 NE20G38   30.08S
TULLAHOMA      SUNNY     63  48  59 NW7       30.08F
WINCHESTER     SUNNY     63  52  67 NE3       30.08S
MCMINNVILLE    SUNNY     64  52  63 CALM      30.07F
COLUMBIA       SUNNY     66  54  63 VRB3      30.07S
SHELBYVILLE    SUNNY     66  50  55 N9        30.09R
$$

TNZ017-018-042-046-047-211700-
NORTHEAST TENNESSEE

CITY           SKY/WX    TMP DP  RH WIND       PRES   REMARKS
TRI CITIES     MOSUNNY   61  50  67 W10       30.00S
ELIZABETHTON   PTSUNNY   57  48  72 VRB6      29.99S
$$

TNZ012-013-036-069-073-074-211700-
CENTRAL EAST TENNESSEE

CITY           SKY/WX    TMP DP  RH WIND       PRES   REMARKS
KNOXVILLE      MOSUNNY   63  50  62 W6        30.03S
OAK RIDGE      PTSUNNY   64  47  53 VRB5      30.04F
GATLINBURG     MOSUNNY   64  48  55 W10       30.02F
MORRISTOWN     MOSUNNY   61  48  63 W12       30.03S
$$

TNZ083-085-099-211700-
SOUTHEAST TENNESSEE

CITY           SKY/WX    TMP DP  RH WIND       PRES   REMARKS
CHATTANOOGA    MOSUNNY   68  51  54 CALM      30.05S
$$

SKY/WX REPORTED AS FAIR MEANS FEW OR NO CLOUDS BELOW
12 THOUSAND FEET.




USA.gov is the U.S. government's official web portal to all federal, state and local government web resources and services.